Weather History for Kankakee, IL

Change the Weather History Date:

Monday, September 16, 2013

  Actual Average Record
Temperature  
Mean Temperature 57 °F -  
Max Temperature 67 °F 75 °F 92 °F (1991)
Min Temperature 48 °F 52 °F 33 °F (2001)
Degree Days  
Heating Degree Days 8    
Growing Degree Days 7 (Base 50)    
Moisture  
Dew Point 51 °F    
Average Humidity 78    
Maximum Humidity 99    
Minimum Humidity 51    
Precipitation  
Precipitation 0.02 in - - ()
Sea Level Pressure  
Sea Level Pressure 30.28 in    
Wind  
Wind Speed 5 mph (NNE)    
Max Wind Speed 14 mph    
Max Gust Speed 21 mph    
Visibility 8 miles    
Events      
Averages and records for this station are not official NWS values.
T = Trace of Precipitation, MM = Missing Value Source: NWS Daily Summary

Daily Weather History Graph

Daily Weather History Graph

Search for Another Location

Airport:

Trip Planner

Search our weather history database for the weather conditions in past years. The results will help you decide how hot, cold, wet, or windy it might be!

Date:

Astronomy

Sep. 16, 2013 Rise Set
Actual Time 6:33 AM CDT 6:58 PM CDT
Civil Twilight 6:05 AM CDT 7:25 PM CDT
Nautical Twilight 5:33 AM CDT 7:58 PM CDT
Astronomical Twilight 4:59 AM CDT 8:31 PM CDT
Moon 5:08 PM CDT (9/16) 3:17 AM CDT (9/16)
Length of Visible Light 13h 20m
Length of Day
12h 25m
Waxing Gibbous, 90% of the Moon is Illuminated
Sep 16
Waxing Gibbous
Sep 19
Full
Sep 26
Last Quarter
Oct 4
New
Oct 11
First Quarter

Hourly Weather History & Observations

Time (CDT) Temp. Dew Point Humidity Pressure Visibility Wind Dir Wind Speed Gust Speed Precip Events Conditions
12:15 AM 58.5 °F 57.2 °F 96% 30.14 in 5.0 mi North 3.5 mph - N/A   Overcast
12:35 AM 58.6 °F 57.6 °F 96% 30.15 in 4.0 mi NNE 5.8 mph - N/A   Overcast
12:55 AM 58.5 °F 57.4 °F 96% 30.15 in 5.0 mi NNE 3.5 mph - N/A   Overcast
1:15 AM 58.1 °F 57.2 °F 97% 30.16 in 4.0 mi North 3.5 mph - N/A   Overcast
1:35 AM 57.2 °F 56.5 °F 97% 30.17 in 3.0 mi NNE 3.5 mph - N/A   Mostly Cloudy
1:55 AM 56.7 °F 56.1 °F 98% 30.18 in 2.5 mi North 3.5 mph - N/A   Mostly Cloudy
2:15 AM 57.2 °F 56.5 °F 97% 30.18 in 2.5 mi Calm Calm - N/A   Overcast
2:35 AM 57.6 °F 57.2 °F 99% 30.19 in 2.5 mi NE 3.5 mph - N/A   Overcast
2:55 AM 57.6 °F 56.8 °F 97% 30.19 in 2.5 mi NE 3.5 mph - N/A   Overcast
3:15 AM 56.3 °F 55.6 °F 97% 30.19 in 2.0 mi Calm Calm - N/A   Mostly Cloudy
3:35 AM 55.9 °F 55.6 °F 99% 30.20 in 1.8 mi Calm Calm - N/A   Overcast
3:55 AM 56.3 °F 55.8 °F 98% 30.20 in 2.0 mi Calm Calm - N/A   Overcast
4:15 AM 56.5 °F 55.9 °F 98% 30.21 in 3.0 mi Calm Calm - N/A   Overcast
4:35 AM 56.7 °F 55.9 °F 97% 30.22 in 4.0 mi Calm Calm - N/A   Overcast
4:55 AM 57.2 °F 55.8 °F 95% 30.23 in 5.0 mi NNE 3.5 mph - N/A   Overcast
5:15 AM 57.2 °F 55.6 °F 94% 30.23 in 7.0 mi NNE 4.6 mph - N/A   Overcast
5:35 AM 57.2 °F 55.4 °F 94% 30.24 in 7.0 mi NNE 4.6 mph - N/A   Overcast
5:55 AM 57.2 °F 55.4 °F 94% 30.24 in 7.0 mi NNE 3.5 mph - N/A   Overcast
6:15 AM 57.2 °F 55.4 °F 94% 30.26 in 7.0 mi NNE 4.6 mph - N/A   Overcast
6:35 AM 57.2 °F 55.6 °F 94% 30.26 in 7.0 mi NNE 3.5 mph - N/A   Overcast
6:55 AM 57.2 °F 55.4 °F 94% 30.27 in 7.0 mi NNE 5.8 mph - N/A   Overcast
7:15 AM 57.9 °F 55.2 °F 91% 30.28 in 10.0 mi NNE 5.8 mph - N/A   Overcast
7:35 AM 58.1 °F 52.9 °F 83% 30.29 in 10.0 mi NNE 8.1 mph - N/A   Overcast
7:55 AM 57.6 °F 52.7 °F 84% 30.29 in 10.0 mi NNE 4.6 mph - N/A   Overcast
8:15 AM 57.7 °F 52.0 °F 81% 30.30 in 10.0 mi North 6.9 mph - N/A   Overcast
8:35 AM 58.1 °F 51.3 °F 78% 30.31 in 10.0 mi NNE 9.2 mph - N/A   Overcast
8:55 AM 58.5 °F 51.1 °F 76% 30.31 in 10.0 mi North 10.4 mph - N/A   Overcast
9:15 AM 58.6 °F 50.7 °F 75% 30.32 in 10.0 mi NNE 8.1 mph - N/A   Overcast
9:35 AM 59.2 °F 50.9 °F 74% 30.33 in 10.0 mi NNE 8.1 mph - N/A   Overcast
9:55 AM 60.1 °F 51.3 °F 73% 30.33 in 10.0 mi NNE 6.9 mph - N/A   Overcast
10:15 AM 60.8 °F 50.0 °F 68% 30.34 in 10.0 mi NNE 9.2 mph 18.4 mph N/A   Overcast
10:35 AM 61.7 °F 50.9 °F 68% 30.34 in 10.0 mi NNE 8.1 mph - N/A   Overcast
10:55 AM 61.9 °F 50.4 °F 66% 30.34 in 10.0 mi NNE 10.4 mph 19.6 mph N/A   Mostly Cloudy
11:15 AM 62.6 °F 51.1 °F 66% 30.34 in 10.0 mi NE 11.5 mph 19.6 mph N/A   Overcast
11:35 AM 63.0 °F 50.9 °F 65% 30.34 in 10.0 mi NE 13.8 mph 19.6 mph N/A   Overcast
11:55 AM 63.3 °F 50.9 °F 64% 30.34 in 10.0 mi NNE 6.9 mph - N/A   Overcast
12:15 PM 63.5 °F 51.3 °F 64% 30.34 in 10.0 mi NE 8.1 mph - N/A   Mostly Cloudy
12:35 PM 65.1 °F 50.9 °F 60% 30.34 in 10.0 mi NE 10.4 mph - N/A   Scattered Clouds
12:55 PM 65.5 °F 50.5 °F 58% 30.34 in 10.0 mi North 6.9 mph - N/A   Scattered Clouds
1:15 PM 66.2 °F 48.9 °F 54% 30.33 in 10.0 mi NNE 9.2 mph 16.1 mph N/A   Clear
1:35 PM 66.2 °F 49.6 °F 55% 30.33 in 10.0 mi North 10.4 mph - N/A   Clear
1:55 PM 66.2 °F 48.4 °F 53% 30.33 in 10.0 mi NE 9.2 mph - N/A   Clear
2:15 PM 65.7 °F 47.5 °F 52% 30.32 in 10.0 mi NNE 9.2 mph 18.4 mph N/A   Clear
2:35 PM 66.7 °F 48.9 °F 53% 30.32 in 10.0 mi NE 9.2 mph 20.7 mph N/A   Clear
2:55 PM 66.7 °F 47.8 °F 51% 30.31 in 10.0 mi ENE 12.7 mph - N/A   Clear
3:15 PM 66.2 °F 47.7 °F 51% 30.30 in 10.0 mi North 10.4 mph 17.3 mph N/A   Clear
3:35 PM 66.6 °F 48.9 °F 53% 30.30 in 10.0 mi NE 8.1 mph - N/A   Clear
3:55 PM 66.4 °F 48.2 °F 52% 30.30 in 10.0 mi NNE 12.7 mph 17.3 mph N/A   Clear
4:15 PM 65.7 °F 47.8 °F 53% 30.30 in 10.0 mi NNE 9.2 mph - N/A   Clear
4:35 PM 65.5 °F 46.8 °F 51% 30.30 in 10.0 mi NE 9.2 mph - N/A   Clear
4:55 PM 64.6 °F 46.6 °F 52% 30.30 in 10.0 mi NNE 10.4 mph 17.3 mph N/A   Clear
5:15 PM 64.0 °F 45.5 °F 51% 30.30 in 10.0 mi NNE 9.2 mph - N/A   Clear
5:35 PM 63.0 °F 45.7 °F 53% 30.31 in 10.0 mi NE 8.1 mph - N/A   Clear
5:55 PM 62.1 °F 46.2 °F 56% 30.30 in 10.0 mi NNE 8.1 mph - N/A   Clear
6:15 PM 60.8 °F 45.9 °F 58% 30.30 in 10.0 mi NNE 9.2 mph - N/A   Clear
6:35 PM 59.2 °F 47.3 °F 65% 30.30 in 10.0 mi NNE 5.8 mph - N/A   Clear
6:55 PM 57.4 °F 47.3 °F 69% 30.30 in 10.0 mi NNE 5.8 mph - N/A   Clear
7:15 PM 55.9 °F 47.5 °F 73% 30.31 in 10.0 mi NNE 5.8 mph - N/A   Clear
7:35 PM 54.9 °F 47.5 °F 76% 30.31 in 10.0 mi NNE 4.6 mph - N/A   Clear
7:55 PM 54.0 °F 47.8 °F 80% 30.32 in 10.0 mi NNE 4.6 mph - N/A   Clear
8:15 PM 53.4 °F 48.2 °F 82% 30.32 in 10.0 mi NNE 4.6 mph - N/A   Clear
8:35 PM 52.9 °F 48.2 °F 84% 30.32 in 10.0 mi NNE 4.6 mph - N/A   Clear
8:55 PM 52.0 °F 48.2 °F 87% 30.32 in 10.0 mi NNE 3.5 mph - N/A   Clear
9:15 PM 51.1 °F 48.0 °F 89% 30.31 in 10.0 mi NNE 3.5 mph - N/A   Clear
9:35 PM 50.9 °F 48.2 °F 90% 30.32 in 10.0 mi Calm Calm - N/A   Clear
9:55 PM 50.5 °F 48.0 °F 91% 30.32 in 10.0 mi Calm Calm - N/A   Clear
10:15 PM 50.0 °F 47.8 °F 92% 30.32 in 10.0 mi NNE 3.5 mph - N/A   Clear
10:35 PM 49.8 °F 47.8 °F 93% 30.32 in 10.0 mi Calm Calm - N/A   Clear
10:55 PM 49.1 °F 47.3 °F 93% 30.32 in 10.0 mi Calm Calm - N/A   Clear
11:15 PM 49.5 °F 48.0 °F 95% 30.32 in 10.0 mi Calm Calm - N/A   Clear
11:35 PM 48.4 °F 47.1 °F 95% 30.32 in 10.0 mi Calm Calm - N/A   Clear
11:55 PM 48.7 °F 47.5 °F 95% 30.33 in 10.0 mi Calm Calm - N/A   Clear